Weather History for Ouarzazate, Morocco

Change the Weather History Date:

Saturday, March 16, 2013

  Actual Average Record
Temperature  
Mean Temperature 63 °F -  
Max Temperature 73 °F 75 °F - ()
Min Temperature 53 °F 48 °F - ()
Degree Days  
Heating Degree Days 2    
Growing Degree Days 13 (Base 50)    
Moisture  
Dew Point 27 °F    
Average Humidity 23    
Maximum Humidity 47    
Minimum Humidity 8    
Precipitation  
Precipitation 0.00 in 0.01 in - ()
Sea Level Pressure  
Sea Level Pressure 30.06 in    
Wind  
Wind Speed 2 mph ()    
Max Wind Speed 10 mph    
Max Gust Speed -    
Visibility 2.9 miles    
Events      
T = Trace of Precipitation, MM = Missing Value Source: Averaged Metar Reports

Daily Weather History Graph

Daily Weather History Graph

Search for Another Location

Airport:

Trip Planner

Search our weather history database for the weather conditions in past years. The results will help you decide how hot, cold, wet, or windy it might be!

Date:

Astronomy

Mar. 16, 2013 Rise Set
Actual Time 6:36 AM WET 6:36 PM WET
Civil Twilight 6:12 AM WET 7:00 PM WET
Nautical Twilight 5:44 AM WET 7:28 PM WET
Astronomical Twilight 5:16 AM WET 7:56 PM WET
Moon 9:16 AM WET (3/16) 11:12 PM WET (3/16)
Length of Visible Light 12h 48m
Length of Day
12h 00m
Waxing Crescent, 21% of the Moon is Illuminated
Mar 16
Waxing Crescent
Mar 19
First Quarter
Mar 27
Full
Apr 3
Last Quarter
Apr 10
New

Hourly Weather History & Observations

Time (WET) Temp. Dew Point Humidity Pressure Visibility Wind Dir Wind Speed Gust Speed Precip Events Conditions
12:00 AM 63 °F 27 °F 14%  in 2 mi ESE 3.5 mph - -   Clear
12:00 AM 62.6 °F 26.6 °F 26% 30.09 in 2.5 mi Variable 3.5 mph - N/A   Haze
1:00 AM 60.8 °F 30.2 °F 31% 30.06 in 3.1 mi Variable 2.3 mph - N/A   Unknown
2:00 AM 59.0 °F 30.2 °F 34% 30.06 in 3.1 mi Calm Calm - N/A   Unknown
3:00 AM 60 °F 29 °F 20%  in 3 mi Calm Calm - -   Clear
3:00 AM 60.8 °F 30.2 °F 31% 30.06 in 3.1 mi Calm Calm - N/A   Unknown
4:00 AM 59.0 °F 30.2 °F 34% 30.06 in 3.1 mi Calm Calm - N/A   Unknown
5:00 AM 57.2 °F 32.0 °F 38% 30.06 in - North - - N/A   Unknown
6:00 AM 56 °F 32 °F 28%  in 3 mi Calm Calm - -   Clear
6:00 AM 55.4 °F 32.0 °F 41% 30.06 in 3.1 mi Calm Calm - N/A   Unknown
7:00 AM 53.6 °F 33.8 °F 47% 30.09 in 3.1 mi Calm Calm - N/A   Unknown
8:00 AM 55.4 °F 33.8 °F 44% 30.12 in 3.1 mi Calm Calm - N/A   Unknown
10:00 AM 60.8 °F 28.4 °F 29% 30.15 in 1.9 mi Calm Calm - N/A   Mist
12:00 PM 68 °F 27 °F 12%  in 2 mi Calm Calm - -   Mist
12:00 PM 68.0 °F 26.6 °F 21% 30.12 in 1.9 mi Variable 1.2 mph - N/A   Mist
1:00 PM 68.0 °F 26.6 °F 21% 30.09 in 1.9 mi Variable 2.3 mph - N/A   Mist
2:00 PM 71.6 °F 26.6 °F 19% 30.06 in 1.9 mi Variable 2.3 mph - N/A   Mist
3:00 PM 72 °F 26 °F 9%  in 2 mi SSE 2.3 mph - -   Mist
3:00 PM 71.6 °F 26.6 °F 19% 30.04 in 2.5 mi Variable 2.3 mph - N/A   Mist
4:00 PM 73.4 °F 23.0 °F 15% 30.04 in 2.5 mi South 4.6 mph - N/A   Mist
5:00 PM 71.6 °F 24.8 °F 17% 30.01 in 3.7 mi SE 6.9 mph - N/A   Unknown
6:00 PM 70 °F 22 °F 8%  in 4 mi SE 9.2 mph - -   Partly Cloudy
6:00 PM 69.8 °F 21.2 °F 16% 30.01 in 3.7 mi SE 9.2 mph - N/A   Unknown
7:00 PM 68.0 °F 23.0 °F 18% 30.01 in 3.7 mi SE 8.1 mph - N/A   Unknown
8:00 PM 66.2 °F 21.2 °F 18% 30.04 in 3.7 mi SE 10.4 mph - N/A   Unknown
9:00 PM 66 °F 19 °F 8%  in 4 mi SE 6.9 mph - -   Scattered Clouds
9:00 PM 66.2 °F 19.4 °F 17% 30.04 in 3.7 mi SE 6.9 mph - N/A   Unknown
10:00 PM 64.4 °F 23.0 °F 21% 30.04 in 3.7 mi East 5.8 mph - N/A   Unknown
11:00 PM 62.6 °F 23.0 °F 22% 30.04 in - Variable 2.3 mph - N/A   Clear